RH
38 29 30 22 22 22 20 19 20 16 15 21 21 19 17 17 19 20 19 18 17 17 15 24 30 35 44 51 66 74 84 84 84 82 89 95 89 88 88 84 76 78 77 75
44 40 27 23 24 23 24 24 22 19 17 24 24 25 21 20 20 20 19 19 18 19 21 24 36 43 52 58 69 78 88 93 90 88 89 88 85 86 84 85 85 74 75 77
44 30 30 32 32 30 27 29 28 26 22 22 26 26 20 20 20 19 19 21 22 28 30 32 34 39 52 66 74 85 90 94 91 89 91 91 92 90 89 86 87 81 74 73
38 33 36 34 40 34 41 29 32 34 36 38 26 38 25 20 21 20 24 31 32 39 42 43 43 36 37 62 79 88 93 94 93 92 91 91 91 90 84 88 86 82 73 65
41 37 40 43 38 32 38 31 34 34 36 37 34 36 24 22 24 22 28 35 43 54 62 67 76 67 74 90 98 98 97 98 96 94 92 95 97 96 96 95 95 94 92 89
40 29 38 35 33 33 32 36 35 35 38 52 35 35 26 23 29 24 35 43 52 61 65 63 70 74 81 89 96 96 96 96 95 95 95 94 95 95 94 94 95 96 96 96
47 45 37 34 37 34 35 40 52 51 60 51 32 34 29 27 29 32 37 43 54 72 74 61 60 64 77 87 92 94 94 97 95 94 94 95 95 94 95 95 95 96 96 97
41 41 41 38 40 37 39 39 51 60 45 34 36 42 24 35 40 43 41 46 56 63 72 67 68 69 77 77 78 81 86 94 95 95 97 96 94 94 94 94 95 94 91 92
43 42 36 37 35 34 41 46 34 48 44 52 34 26 22 43 46 49 49 52 55 56 61 64 70 69 66 66 70 70 69 72 81 90 91 95 94 94 94 94 87 95 91 84
40 42 32 33 36 35 37 33 56 64 89 72 34 31 28 42 43 46 53 51 51 52 58 68 71 69 56 57 58 63 64 66 70 78 83 90 91 90 90 91 87 84 85 81
39 44 36 38 43 38 46 50 50 50 54 60 50 33 34 34 34 43 45 45 46 48 51 64 62 52 50 50 52 58 61 66 74 77 78 84 83 85 84 85 82 78 83 81
45 52 48 33 25 25 28 35 44 69 57 64 54 49 26 34 34 40 40 44 41 42 42 50 51 49 48 49 49 52 54 59 63 64 67 74 80 78 81 82 83 88 83 78
50 64 57 42 35 35 42 36 34 39 51 58 69 54 23 34 38 40 42 42 42 40 41 44 47 49 48 48 48 48 51 52 56 60 70 79 79 79 81 83 85 82 78 73
61 48 52 46 45 50 57 45 41 48 78 68 60 44 33 38 45 39 43 41 37 39 41 42 45 48 48 48 48 49 54 55 62 66 71 77 80 78 76 76 78 76 70 66
56 71 52 44 40 38 43 46 42 46 48 82 53 50 38 36 40 42 41 43 34 36 40 43 42 46 45 49 52 53 57 63 65 67 72 76 78 74 73 75 73 71 68 61
90 100 82 83 47 53 72 52 40 42 46 54 64 74 45 43 45 43 41 44 48 46 41 36 33 37 40 45 55 60 62 68 67 68 73 77 74 70 74 74 72 70 68 65
96 99 99 96 59 62 98 90 62 53 46 54 86 64 46 48 45 53 56 61 72 72 48 34 31 33 38 39 45 49 57 63 68 70 72 86 79 84 90 73 72 79 80 77
93 98 88 79 57 96 44 25 33 36 36 38 42 42 39 40 44 50 47 58 76 67 53 44 40 37 36 40 39 49 53 63 71 76 83 80 82 100 87 99 100 100 99 100
66 68 94 91 66 52 38 33 57 62 45 57 53 44 46 43 44 46 45 52 58 63 78 76 70 65 59 51 46 49 57 64 73 96 99 100 100 100 100 100 100 100 100 100
60 82 96 93 91 78 62 54 47 55 79 94 70 58 49 41 61 51 35 35 44 48 56 97 94 68 60 60 52 65 77 84 100 100 100 100 100 100 100 100 100 100 100 100
81 88 90 75 89 67 54 48 52 86 89 85 82 76 53 54 41 38 38 40 37 56 50 46 58 100 74 54 57 67 100 100 100 100 100 99 86 99 100 100 100 100 100 100
40 54 65 82 81 78 50 41 67 62 46 65 54 40 36 34 39 85 61 51 33 31 35 36 51 59 84 88 60 64 88 100 98 100 100 100 100 98 99 100 100 100 100 100
56 36 43 37 42 35 29 28 35 40 38 35 37 35 42 48 69 97 86 62 42 32 31 34 42 59 72 74 63 100 100 94 97 96 98 100 100 99 100 100 100 99 100 99
35 30 46 43 33 26 25 22 22 21 28 26 26 30 34 80 99 100 81 58 40 28 28 36 47 59 77 83 73 75 94 94 97 97 98 98 98 100 100 97 97 98 99 99
43 39 48 45 32 26 23 22 23 25 28 29 29 30 32 35 40 41 44 40 36 39 37 38 48 57 71 80 88 94 93 92 95 96 97 98 97 98 98 98 96 94 99 92
32 37 52 51 30 34 33 28 29 33 34 34 34 36 34 32 34 33 42 40 38 45 53 54 46 59 70 83 89 93 91 89 95 96 96 96 96 96 96 96 98 93 93 90
Wind_Speed
7 11 16 21 21 24 24 21 21 18 13 21 26 29 25 21 22 24 22 21 17 14 7 8 10 13 14 14 14 14 16 16 12 12 10 5 7 5 4 3 6 6 6 7
7 22 20 16 14 20 22 23 25 21 18 14 22 30 29 29 28 26 23 19 14 11 7 3 7 10 13 15 17 16 16 16 14 10 8 5 6 4 5 5 5 4 5 6
23 13 6 13 15 16 21 19 22 23 20 21 25 32 17 3 8 13 11 10 5 8 5 6 5 7 11 14 13 12 13 16 13 11 7 7 8 6 4 5 5 4 4 4
20 18 24 16 17 14 16 11 14 16 14 14 11 16 21 13 10 10 7 7 3 3 6 7 8 5 7 9 7 11 13 14 12 12 10 13 7 6 3 6 6 4 4 4
9 9 11 20 24 18 16 15 13 13 16 18 15 12 2 7 6 6 8 4 1 3 4 4 6 5 4 7 9 8 11 9 9 8 9 7 9 8 8 8 11 11 10 11
20 6 5 12 8 15 5 8 10 9 9 11 15 17 9 5 4 5 5 4 3 3 2 3 4 5 7 8 10 11 11 11 11 11 12 13 14 12 10 9 8 7 6 7
12 23 19 13 9 8 13 10 5 8 6 9 3 10 15 7 7 1 4 6 7 6 4 5 6 7 7 8 10 10 12 12 11 11 12 12 11 12 12 9 7 6 8 8
7 7 18 19 22 9 18 17 7 7 10 9 7 11 3 5 3 1 3 6 7 8 7 6 6 7 9 9 10 12 13 14 13 14 13 10 13 8 9 13 11 9 7 5
6 6 7 9 14 16 9 18 18 16 16 12 13 17 12 9 5 7 8 10 10 9 8 7 6 7 9 10 12 13 14 13 13 11 11 12 9 10 7 10 9 6 12 8
1 7 8 7 8 14 13 2 7 6 6 11 13 17 13 8 10 10 11 14 12 10 10 9 9 9 9 12 13 13 12 14 15 14 12 9 10 11 10 10 11 8 9 10
7 7 5 8 11 12 12 17 9 7 13 12 17 15 10 5 7 13 15 15 13 13 13 13 12 12 13 12 11 11 11 13 14 13 13 12 11 12 12 11 12 13 11 10
10 5 12 19 13 12 16 19 21 14 16 11 18 23 3 3 4 12 17 16 14 14 14 14 14 13 12 12 11 11 11 12 12 13 13 12 12 12 11 11 11 11 11 10
10 7 11 13 17 16 15 21 20 21 21 26 19 21 10 5 9 13 16 19 16 15 14 13 14 13 13 13 12 13 12 12 11 11 11 11 11 11 11 12 12 13 13 13
2 12 14 16 12 1 7 14 17 19 17 20 22 28 30 14 12 15 18 19 17 15 13 13 14 14 14 14 14 13 13 12 11 12 11 11 11 11 11 12 13 14 14 14
7 15 20 24 26 26 24 22 23 22 23 23 27 26 30 19 13 16 17 17 18 13 12 16 16 15 15 14 14 13 13 13 13 13 12 11 11 12 12 13 13 12 13 13
3 3 11 22 26 23 21 26 29 25 25 20 19 23 20 7 10 11 17 17 15 12 12 13 16 16 16 16 15 15 15 15 15 14 12 12 12 12 12 13 14 15 14 12
5 4 3 7 17 19 17 23 28 29 29 25 21 22 20 14 16 11 12 15 10 12 21 19 18 17 18 17 15 17 18 16 16 15 14 12 13 13 11 13 14 13 14 13
5 3 5 10 14 17 11 17 19 24 23 26 30 27 23 19 15 16 18 13 12 13 20 15 15 15 14 14 16 14 14 16 16 15 13 14 14 12 14 10 10 11 10 11
13 8 5 6 12 18 20 10 7 10 14 14 12 13 10 10 12 17 12 6 9 8 9 12 11 12 12 13 13 16 17 17 16 14 14 13 13 14 13 12 12 10 10 10
9 10 6 5 9 14 1 7 10 8 9 14 18 14 14 13 11 1 10 12 11 11 10 9 12 12 13 13 12 14 15 15 14 15 15 14 13 14 14 14 14 9 8 9
6 5 13 13 12 8 8 11 5 7 3 7 9 13 14 13 13 17 17 16 15 12 15 15 12 8 12 11 14 16 11 16 15 12 13 13 16 13 12 11 10 11 11 10
6 6 7 5 9 16 7 6 5 8 8 12 14 15 17 18 17 9 13 15 18 17 16 14 12 11 6 11 13 16 17 11 11 13 14 13 11 10 10 12 11 10 11 11
6 8 6 7 7 9 15 13 10 11 14 16 18 19 17 17 14 10 12 14 17 20 15 13 11 11 8 10 13 10 7 14 15 15 14 13 12 10 11 12 12 10 10 9
12 14 12 14 15 18 18 18 21 20 17 18 19 20 18 14 12 13 16 14 14 16 16 12 10 8 11 7 10 9 11 12 15 15 15 13 12 12 11 8 9 9 10 9
11 9 8 14 17 21 18 19 17 20 19 20 20 20 21 21 21 19 16 18 14 16 16 13 12 8 8 8 7 9 12 15 15 14 13 13 10 11 10 8 9 9 9 10
11 16 11 13 19 16 22 22 22 22 23 23 23 23 21 21 23 23 17 14 15 14 15 14 14 9 7 8 8 10 14 15 13 14 12 11 10 9 9 8 7 5 9 12
Wind_Direction
207 225 225 239 232 260 284 285 272 280 279 278 283 282 287 286 278 272 268 262 256 251 273 276 244 221 210 213 193 188 186 191 182 183 168 163 182 156 141 153 139 148 147 172
210 244 257 261 257 242 252 267 275 282 276 281 291 288 290 278 268 268 267 263 250 238 239 271 268 219 210 210 207 194 184 175 183 182 177 162 150 146 142 136 131 139 151 177
239 258 61 243 239 240 240 254 276 283 294 288 288 288 275 27 260 267 255 276 236 242 282 310 309 268 225 220 202 193 182 176 185 175 136 113 104 102 133 149 133 165 181 173
259 267 258 246 238 232 246 244 261 276 283 282 330 291 297 277 265 247 203 205 171 317 330 336 330 282 266 225 221 174 176 177 170 151 152 162 166 157 136 136 111 94 41 85
223 239 235 238 242 236 262 266 262 274 280 288 262 256 243 168 232 226 180 163 129 33 1 17 19 27 38 47 59 87 105 100 111 132 137 134 86 87 93 88 87 84 71 51
250 246 276 252 246 236 221 234 234 248 262 260 247 230 272 5 21 132 122 159 135 102 93 77 97 95 77 78 80 84 95 102 104 106 110 114 119 119 114 118 114 109 99 94
231 241 230 223 224 200 210 203 222 227 214 253 142 237 246 189 166 138 156 160 145 142 155 163 134 115 107 105 105 101 104 103 105 103 112 121 125 127 128 126 124 159 150 151
223 200 188 208 225 207 207 211 210 250 239 281 112 244 270 86 90 182 196 160 145 156 163 159 139 135 138 143 142 141 141 144 148 146 143 145 142 145 168 156 150 181 164 143
201 218 167 190 205 218 183 218 231 271 283 273 260 260 233 151 181 195 183 175 167 163 156 153 146 153 157 155 162 166 160 152 150 141 144 145 158 136 164 121 151 182 122 137
234 266 190 173 202 213 219 203 195 219 238 237 255 265 265 190 203 199 190 184 173 167 160 159 160 171 145 146 142 142 147 148 147 145 142 133 132 133 141 133 140 157 137 139
223 229 181 166 204 210 204 233 227 241 236 258 272 269 38 22 218 205 196 188 182 182 176 170 171 167 158 155 154 153 159 153 155 158 151 149 150 144 145 149 157 154 139 139
212 267 255 256 254 253 272 233 223 231 232 240 253 265 200 272 238 209 203 194 191 188 180 174 177 171 171 174 167 166 166 167 163 163 160 157 155 151 152 143 143 140 144 145
172 224 258 247 233 220 237 241 253 248 246 253 252 259 281 311 238 209 210 200 198 195 185 183 183 183 185 186 185 178 176 176 171 165 162 163 160 156 156 150 154 155 153 160
211 236 230 250 265 56 223 245 247 245 251 257 253 265 269 223 242 227 217 210 202 196 189 200 204 197 197 196 196 193 184 181 177 178 177 172 167 168 163 158 162 165 167 164
215 245 247 255 262 263 259 253 246 247 251 255 266 268 262 273 261 242 227 219 212 210 203 211 211 209 206 204 205 205 197 189 183 185 185 175 166 168 161 162 162 162 167 165
165 235 265 257 262 260 258 253 257 251 246 253 252 262 261 277 316 276 263 228 221 236 229 242 232 229 213 211 211 202 200 195 192 191 187 170 163 164 164 161 160 164 160 160
176 192 229 251 258 264 250 239 247 252 249 243 238 240 259 259 250 247 263 282 313 308 300 294 267 238 224 211 209 206 200 189 193 190 179 167 164 163 163 162 161 158 160 164
195 167 252 263 271 250 259 259 249 251 251 250 250 251 259 253 260 255 239 250 258 282 298 309 303 285 248 227 211 209 194 190 193 184 172 170 165 157 163 150 153 154 151 155
229 235 239 256 252 268 279 295 1 343 297 9 321 319 341 330 295 265 239 319 298 284 274 278 275 282 280 258 223 204 192 190 188 181 178 173 156 161 159 156 163 159 151 153
207 223 258 227 254 263 203 11 337 4 252 17 5 6 346 330 265 294 3 337 317 302 290 269 264 267 261 247 226 205 188 187 186 183 177 167 161 159 163 165 167 160 157 147
173 205 227 239 252 266 34 350 301 235 24 329 338 319 318 313 312 322 314 313 310 298 301 306 296 234 257 249 211 199 187 195 190 164 158 166 170 162 161 157 167 159 159 153
233 241 238 251 258 254 354 346 352 312 262 250 269 276 288 288 291 291 291 296 303 302 301 306 304 290 255 252 225 210 203 191 161 154 162 158 158 161 158 163 166 166 157 165
247 233 280 262 291 304 306 296 299 283 287 289 284 280 273 273 274 263 268 281 296 294 292 301 306 305 288 267 225 208 180 169 160 158 159 155 160 158 165 166 166 165 162 166
264 259 258 272 269 279 289 298 285 281 281 284 276 278 281 267 242 253 268 270 275 283 289 297 298 296 283 245 246 221 156 162 161 156 152 150 156 164 166 165 166 163 171 171
254 285 266 276 275 278 282 276 289 303 300 289 281 279 278 275 276 271 270 266 272 278 286 285 288 284 269 249 209 162 177 169 161 151 145 153 161 166 162 172 171 172 188 181
256 252 246 261 276 293 289 295 297 297 291 287 284 278 266 264 267 270 267 266 270 270 273 275 283 276 260 220 202 187 177 174 153 149 149 156 156 158 166 161 137 126 165 165